This demonstration page uses our WeatherBlox Daily Observations layout. Learn more.

41.86663, -103.66717

Hourly Observations for January 24, 2020

Temp ( °F °C ) Dew Point ( °F °C ) Humidity (%) Winds ( mph kmh ) Pressure ( in mb ) Visibility ( mi km ) Precip ( " mm )
12:53 am 00:53 Cloudy 26 -3.3 20 -6.7 78 78 NW 6 9 30.11 1020 10 16.0934 0 0
1:53 am 01:53 Cloudy 25 -3.9 20 -6.7 81 81 Calm 30.11 1020 10 16.0934 0 0
2:53 am 02:53 Cloudy 26 -3.3 21 -6.1 81 81 SW 5 7 30.09 1019 10 16.0934 0 0
3:53 am 03:53 Cloudy 27 -2.8 22 -5.6 81 81 Calm 30.09 1019 10 16.0934 0 0
4:53 am 04:53 Cloudy 27 -2.8 22 -5.6 81 81 Calm 30.09 1019 10 16.0934 0 0
5:53 am 05:53 Cloudy 29 -1.7 21 -6.1 72 72 Calm 30.1 1019 10 16.0934 0 0
6:53 am 06:53 Cloudy 27 -2.8 22 -5.6 81 81 N 3 6 30.12 1020 10 16.0934 0 0
7:53 am 07:53 Cloudy 28 -2.2 22 -5.6 78 78 VRB 5 7 30.11 1020 10 16.0934 0 0
8:53 am 08:53 Cloudy 30 -1.1 23 -5 75 75 S 6 9 30.1 1019 10 16.0934 0 0
9:53 am 09:53 Cloudy 34 1.1 22 -5.6 61 61 Calm 30.1 1019 10 16.0934 0 0
10:53 am 10:53 Mostly Cloudy 41 5 23 -5 49 49 Calm 30.07 1018 10 16.0934 0 0
11:53 am 11:53 Sunny 47 8.3 25 -3.9 42 42 NW 5 7 30.01 1016 10 16.0934 0 0
12:53 pm 12:53 Sunny 49 9.4 26 -3.3 41 41 N 5 7 29.97 1015 10 16.0934 0 0
1:53 pm 13:53 Cloudy 51 10.6 27 -2.8 39 39 VRB 3 6 29.94 1014 10 16.0934 0 0
2:53 pm 14:53 Sunny 52 11.1 27 -2.8 38 38 S 6 9 29.93 1014 10 16.0934 0 0
3:53 pm 15:53 Sunny 51 10.6 27 -2.8 39 39 Calm 29.92 1013 10 16.0934 0 0
4:53 pm 16:53 Sunny 43 6.1 25 -3.9 49 49 ESE 3 6 29.95 1014 10 16.0934 0 0
5:53 pm 17:53 Clear 37 2.8 24 -4.4 59 59 E 7 11 29.97 1015 10 16.0934 0 0
6:53 pm 18:53 Clear 33 0.6 23 -5 66 66 E 3 6 29.99 1016 10 16.0934 0 0
7:53 pm 19:53 Clear 33 0.6 23 -5 66 66 E 7 11 29.99 1016 10 16.0934 0 0
8:53 pm 20:53 Clear 29 -1.7 22 -5.6 75 75 ENE 7 11 30 1016 10 16.0934 0 0
9:53 pm 21:53 Clear 29 -1.7 22 -5.6 75 75 NE 3 6 29.99 1016 10 16.0934 0 0
10:53 pm 22:53 Clear 27 -2.8 21 -6.1 78 78 E 3 6 29.98 1015 10 16.0934 0 0
11:53 pm 23:53 Clear 25 -3.9 21 -6.1 85 85 N 5 7 29.97 1015 10 16.0934 0 0

Powered by AerisWeather